Alexandria, LA

9:42 AM CDT on May 20, 2018 (GMT -0500)
Alexandria International

Weather History for KAEX - December, 2006

Change the Weather History Date:

Thursday, December 21, 2006

  Actual Average Record
Temperature  
Mean Temperature 61 °F 50 °F  
Max Temperature 67 °F 60 °F 79 °F (1948)
Min Temperature 55 °F 40 °F 18 °F (1901)
Degree Days  
Heating Degree Days 4 16  
Month to date heating degree days 272 305  
Since 1 July heating degree days 567 630  
Growing Degree Days 10 (Base 50)    
Moisture  
Dew Point 57 °F    
Average Humidity 90    
Maximum Humidity 94    
Minimum Humidity 82    
Precipitation  
Precipitation 2.03 in 0.16 in 2.99 in (1972)
Month to date precipitation 4.36 4.61  
Year to date precipitation 51.21 54.41  
Snow  
Snow 0.00 in - T in (1963)
Month to date snowfall 0.0  
Since 1 July snowfall 0.0  
Snow Depth 0.00 in    
Sea Level Pressure  
Sea Level Pressure 29.98 in    
Wind  
Wind Speed 6 mph (NNW)    
Max Wind Speed 18 mph    
Max Gust Speed 23 mph    
Visibility 5 miles    
Events Rain , Thunderstorm    
T = Trace of Precipitation, MM = Missing Value Source: NWS Daily Summary

Daily Weather History Graph

Daily Weather History Graph

Search for Another Location

Airport or City:

Astronomy

Dec. 21, 2006 Rise Set
Actual Time 7:05 AM CST 5:11 PM CST
Civil Twilight 6:38 AM CST 5:38 PM CST
Nautical Twilight 6:07 AM CST 6:08 PM CST
Astronomical Twilight 5:38 AM CST 6:38 PM CST
Moon 8:19 AM CST (12/21) 6:15 PM CST (12/21)
Length of Visible Light 11h 00m
Length of Day
10h 06m
New Moon, 2% of the Moon is Illuminated
Dec 21
New Moon
Dec 27
First Quarter
Jan 3
Full
Jan 11
Last Quarter
Jan 18
New

Hourly Weather History & Observations

Time (CST) Temp. Dew Point Humidity Pressure Visibility Wind Dir Wind Speed Gust Speed Precip Events Conditions
12:53 AM 66.9 °F 63.0 °F 87% 29.98 in 10.0 mi SSE 11.5 mph - N/A   Overcast
1:28 AM 66.2 °F 62.6 °F 88% 29.98 in - North - - N/A   Unknown
1:53 AM 57.0 °F 54.0 °F 89% 30.01 in 10.0 mi NNW 10.4 mph - N/A Rain Light Rain
2:18 AM 55.4 °F 53.6 °F 94% 29.99 in 1.8 mi WNW 9.2 mph - 0.17 in Rain Heavy Rain
2:46 AM 55.4 °F 53.6 °F 94% 29.99 in 3.0 mi NNW 6.9 mph - 0.52 in Rain Light Rain
2:53 AM 55.9 °F 53.1 °F 90% 30.00 in 4.0 mi NNW 5.8 mph - 0.53 in Rain Light Rain
3:02 AM 55.4 °F 53.6 °F 94% 29.99 in 10.0 mi NNW 6.9 mph - 0.00 in   Overcast
3:32 AM 55.4 °F 53.6 °F 94% 29.99 in 10.0 mi NNW 5.8 mph - 0.00 in Rain Light Rain
3:53 AM 57.0 °F 54.0 °F 89% 30.00 in 10.0 mi North 5.8 mph - 0.00 in Rain Light Rain
4:53 AM 57.9 °F 54.0 °F 87% 30.01 in 10.0 mi West 5.8 mph - 0.00 in   Overcast
5:53 AM 57.0 °F 55.0 °F 93% 30.03 in 10.0 mi NW 3.5 mph - 0.06 in   Overcast
6:53 AM 57.0 °F 54.0 °F 89% 30.04 in 10.0 mi WNW 6.9 mph - 0.00 in Rain Light Rain
7:53 AM 57.0 °F 52.0 °F 83% 30.05 in 10.0 mi North 4.6 mph - 0.00 in   Overcast
8:53 AM 57.0 °F 53.1 °F 87% 30.07 in 10.0 mi Calm Calm - N/A   Overcast
9:30 AM 57.2 °F 53.6 °F 88% 30.06 in 10.0 mi NW 4.6 mph - N/A   Overcast
9:53 AM 57.9 °F 53.1 °F 84% 30.06 in 10.0 mi NNE 5.8 mph - N/A   Overcast
10:28 AM 57.2 °F 53.6 °F 88% 30.06 in 10.0 mi North 5.8 mph - N/A   Overcast
10:46 AM 59.0 °F 55.4 °F 88% 30.06 in 10.0 mi Calm Calm - N/A   Overcast
10:53 AM 59.0 °F 55.0 °F 87% 30.07 in 5.0 mi NE 3.5 mph - N/A   Overcast
10:59 AM 57.2 °F 55.4 °F 94% 30.05 in 1.8 mi NE 3.5 mph - N/A   Overcast
11:15 AM 59.0 °F 55.4 °F 88% 30.04 in 1.5 mi NE 4.6 mph - N/A   Overcast
11:25 AM 59.0 °F 55.4 °F 88% 30.03 in 2.5 mi ENE 4.6 mph - N/A   Overcast
11:53 AM 59.0 °F 57.0 °F 93% 30.02 in 2.0 mi East 3.5 mph - N/A   Overcast
12:00 PM 59.0 °F 55.4 °F 88% 30.01 in 4.0 mi East 5.8 mph - N/A   Overcast
12:53 PM 60.1 °F 57.0 °F 90% 29.99 in 8.0 mi ENE 4.6 mph - N/A   Overcast
1:53 PM 62.1 °F 57.9 °F 86% 29.96 in 9.0 mi ENE 4.6 mph - N/A   Overcast
2:20 PM 62.6 °F 57.2 °F 82% 29.95 in 1.8 mi East 3.5 mph - 0.00 in Rain Light Rain
2:32 PM 60.8 °F 59.0 °F 94% 29.94 in 3.0 mi Calm Calm - 0.00 in Rain Light Rain
2:53 PM 62.1 °F 59.0 °F 90% 29.96 in 4.0 mi Calm Calm - 0.00 in   Overcast
3:53 PM 62.1 °F 59.0 °F 90% 29.95 in 4.0 mi ESE 3.5 mph - N/A   Overcast
4:53 PM 62.1 °F 59.0 °F 90% 29.92 in 3.0 mi ENE 4.6 mph - 0.04 in Rain Rain
4:59 PM 62.6 °F 59.0 °F 88% 29.92 in 2.5 mi SSE 3.5 mph - 0.05 in Rain , Thunderstorm Heavy Thunderstorms and Rain
5:05 PM 60.8 °F 59.0 °F 94% 29.92 in 0.8 mi West 6.9 mph - 0.30 in Rain , Thunderstorm Heavy Thunderstorms and Rain
5:18 PM 60.8 °F 59.0 °F 94% 29.92 in 2.0 mi Calm Calm - 0.39 in Rain , Thunderstorm Light Thunderstorms and Rain
5:21 PM 62.6 °F 59.0 °F 88% 29.92 in 4.0 mi Calm Calm - 0.39 in Rain , Thunderstorm Light Thunderstorms and Rain
5:33 PM 60.8 °F 59.0 °F 94% 29.92 in 3.0 mi Calm Calm - 0.39 in Rain Light Rain
5:53 PM 62.1 °F 59.0 °F 90% 29.93 in 3.0 mi Calm Calm - 0.53 in Rain Light Rain
6:10 PM 62.6 °F 59.0 °F 88% 29.91 in 6.0 mi NW 3.5 mph - 0.03 in Rain Rain
6:53 PM 62.1 °F 59.0 °F 90% 29.95 in 1.8 mi WNW 13.8 mph - 0.27 in Rain Heavy Rain
6:57 PM 62.6 °F 59.0 °F 88% 29.94 in 0.8 mi NW 18.4 mph 23.0 mph 0.19 in Rain Heavy Rain
7:05 PM 62.6 °F 59.0 °F 88% 29.94 in 1.0 mi WNW 11.5 mph - 0.28 in Rain Heavy Rain
7:12 PM 62.6 °F 59.0 °F 88% 29.94 in 3.0 mi WNW 11.5 mph 19.6 mph 0.31 in Rain Heavy Rain
7:16 PM 62.6 °F 59.0 °F 88% 29.94 in 3.0 mi WNW 10.4 mph - 0.33 in Rain Rain
7:20 PM 62.6 °F 59.0 °F 88% 29.93 in 2.5 mi NW 8.1 mph - 0.36 in Rain Heavy Rain
7:26 PM 60.8 °F 59.0 °F 94% 29.93 in 1.8 mi Calm Calm - 0.41 in Rain Heavy Rain
7:36 PM 60.8 °F 59.0 °F 94% 29.92 in 2.0 mi NE 3.5 mph - 0.48 in Rain Heavy Rain
7:46 PM 60.8 °F 59.0 °F 94% 29.92 in 6.0 mi NNE 3.5 mph - 0.48 in Rain Light Rain
7:53 PM 61.0 °F 59.0 °F 93% 29.94 in 8.0 mi ESE 3.5 mph - 0.48 in Rain Light Rain
8:33 PM 60.8 °F 59.0 °F 94% 29.95 in 9.0 mi WSW 4.6 mph - 0.01 in   Overcast
8:45 PM 60.8 °F 59.0 °F 94% 29.95 in 3.0 mi WNW 5.8 mph - 0.02 in Rain Light Rain
8:53 PM 61.0 °F 59.0 °F 93% 29.96 in 2.0 mi WNW 6.9 mph - 0.03 in Rain Light Rain
9:15 PM 60.8 °F 57.2 °F 88% 29.95 in 3.0 mi NW 9.2 mph - 0.01 in Rain Light Rain
9:19 PM 60.8 °F 57.2 °F 88% 29.96 in 4.0 mi NW 8.1 mph - 0.01 in Rain Light Rain
9:53 PM 60.1 °F 55.9 °F 86% 29.97 in 9.0 mi NW 11.5 mph - 0.01 in   Overcast
10:35 PM 59.0 °F 55.4 °F 88% 29.96 in 9.0 mi WNW 8.1 mph - 0.00 in Rain Light Rain
10:53 PM 59.0 °F 55.9 °F 90% 29.96 in 3.0 mi North 6.9 mph - 0.03 in Rain Rain
11:53 PM 57.9 °F 55.0 °F 90% 29.96 in 4.0 mi NNW 3.5 mph - 0.05 in Rain Rain